Location: West Cummington
(42.4920°N, 72.9680°W)
Time: 21:27:19
(UTC-04:00)

Cosmos 1703 Rocket - Visible Passes

Search period start: 29 April 2016 00:00
Search period end: 09 May 2016 00:00
Orbit: 607 x 633 km, 82.5° (Epoch: 29 April)

Date Brightness Start Highest point End Pass type
(mag) Time Alt. Az. Time Alt. Az. Time Alt. Az.
29 Apr 4.4 20:27:42 10° SSW 20:32:04 57° W 20:36:30 10° N visible
30 Apr 5.7 20:45:55 10° SW 20:49:51 31° WNW 20:53:51 10° NNW visible
01 May 6.6 21:04:45 10° WSW 21:07:45 18° WNW 21:10:47 10° NNW visible
05 May 6.8 20:37:48 10° WSW 20:40:38 16° WNW 20:43:28 10° NNW visible
06 May 7.0 05:07:41 10° NE 05:10:05 14° ENE 05:12:26 10° E visible
